Content
SEND FEEDBACK

Daily
Averages
Monthly
Summary
United States of America

GRAND MARAIS, MINNESOTA


Home > North America > United States > Minnesota
Elevation: 1818 feet     Latitude: 48 05N     Longitude: 090 46W

WEATHER
 
SELECT A DAY
Number of Records: 138,308;   Date Range: 7/30/98 - 12/20/14
 
SHARE

PRINT THIS DATA

[ ← Previous Day ]
WEATHER ALMANAC - AUGUST 27, 2014
[ Next Day → ]
[ °C ]   °F
Weather ElementAverageHighLow
Temperature58.4 °F64.9 °F (4:56 pm)53.1 °F (10:56 pm)
Dewpoint50.3 °F55 °F (1:56 am)43 °F (9:56 am)
Humidity75.4 %86 % (6:56 pm)45 % (9:56 am)
Barometer30.16 in30.19 in (12:56 pm)30.14 in (12:56 pm)
Wind Speed5.3 mph10.4 mph (1:56 am)
Wind Gust17.3 mph (11:56 am)
Weather ElementAverage
Wind DirectionSSW (194.2 °)

Weather ElementTotal
Precipitation---
Heating Degree Days6 (Base 65)
Growing Degree Days9 (Base 50)
Averaged from 24 records on August 27, 2014
WEATHER CONDITIONS BREAKOUT
WIND DIRECTION BREAKOUT
WEATHER BY HOUR - AUGUST 27, 2014
[ °C ]   °F
Local TimeTemperatureDewpointHumidityBarometerVisibilityWind DirectionWind SpeedGust SpeedPrecipitationEventsConditions
12:56 AM55.9 °F51.1 °F84 %30.15 inCalm
1:56 AM55.0 °F51.1 °F86 %30.15 inNW (320°)4.6 mph
2:56 AM55.9 °F48.0 °F75 %30.14 inVariable3.5 mph
3:56 AM55.0 °F48.0 °F77 %30.14 inNNW (330°)6.9 mph
4:56 AM55.0 °F48.9 °F80 %30.15 inNNW (340°)8.1 mph
5:56 AM55.0 °F48.0 °F77 %30.16 inNNW (330°)10.4 mph17.3 mph
6:56 AM55.0 °F48.9 °F80 %30.17 inNNW (330°)8.1 mph
7:56 AM59.0 °F50.0 °F72 %30.18 inNNW (340°)5.8 mph
8:56 AM63.0 °F50.0 °F63 %30.18 inNW (320°)5.8 mph
9:56 AM64.9 °F43.0 °F45 %30.18 inVariable4.6 mph
10:56 AM64.0 °F46.0 °F52 %30.18 inVariable3.5 mph
11:56 AM62.1 °F52.0 °F70 %30.18 inSouth (190°)9.2 mph
12:56 PM62.1 °F53.1 °F72 %30.19 inSW (220°)10.4 mph
1:56 PM62.1 °F54.0 °F75 %30.18 inWSW (240°)9.2 mph
2:56 PM63.0 °F55.0 °F75 %30.18 inWSW (250°)9.2 mph
3:56 PM62.1 °F54.0 °F75 %30.17 inWSW (250°)6.9 mph
4:56 PM62.1 °F55.0 °F78 %30.16 inCalm
5:56 PM60.1 °F54.0 °F80 %30.15 inWSW (240°)5.8 mph
6:56 PM60.1 °F51.1 °F72 %30.14 inVariable3.5 mph
7:56 PM55.9 °F50.0 °F80 %30.14 inNNW (330°)3.5 mph
8:56 PM53.1 °F48.9 °F86 %30.16 inNW (310°)3.5 mph
9:56 PM53.1 °F48.9 °F86 %30.14 inNW (320°)3.5 mph
10:56 PM54.0 °F48.9 °F83 %30.14 inCalm
11:56 PM54.0 °F50.0 °F86 %30.14 inCalm
Hourly data recorded from KGNA, located miles away from Grand Marais, Minnesota







STORIES FROM OUR PARTNERS